RYR17CG EGBB-LIPH

Flight info

Callsign RYR17CG
Flight time 1h 47m
Altitude 41000
Route ADMEX Y321 EMKUK UL612 COWLY Q70 BIG UL9 KONAN DCT KOK DCT RITAX DCT EDISA DCT PICWI DCT BATUB M738 NATAG DCT LORLO DCT UNTAD M738 ADOSA
Aircraft B738/M-SDE2E3FGHIRWXY/LB1

Departure

Time 2026-04-28 07:34
Airport Birmingham Airport (EGBB)

Arrival

Time 2026-04-28 09:22
Airport Treviso Airport (LIPH)
Time Latitude Longitude Altitude Speed Heading
2026-04-28 06:52 52.45203 -1.73693 321 ft 0 kts 326°
2026-04-28 07:24 52.45185 -1.73673 322 ft 4 kts 320°
2026-04-28 07:24 52.45166 -1.73642 320 ft 4 kts 306°
2026-04-28 07:24 52.45154 -1.73606 320 ft 4 kts 270°
2026-04-28 07:25 52.45156 -1.73585 321 ft 0 kts 236°
2026-04-28 07:29 52.45156 -1.73586 321 ft 1 kts 236°
2026-04-28 07:29 52.45151 -1.73599 321 ft 2 kts 236°
2026-04-28 07:30 52.45137 -1.73631 321 ft 5 kts 236°
2026-04-28 07:30 52.45115 -1.73684 322 ft 6 kts 236°
2026-04-28 07:30 52.45080 -1.73740 322 ft 8 kts 221°
2026-04-28 07:30 52.45040 -1.73820 322 ft 10 kts 227°
2026-04-28 07:31 52.44971 -1.73816 321 ft 12 kts 146°
2026-04-28 07:31 52.44891 -1.73728 322 ft 15 kts 146°
2026-04-28 07:31 52.44803 -1.73694 322 ft 14 kts 197°
2026-04-28 07:31 52.44711 -1.73719 322 ft 14 kts 165°
2026-04-28 07:32 52.44632 -1.73642 322 ft 13 kts 146°
2026-04-28 07:32 52.44558 -1.73561 322 ft 13 kts 146°
2026-04-28 07:32 52.44485 -1.73480 321 ft 12 kts 146°
2026-04-28 07:32 52.44412 -1.73412 322 ft 12 kts 173°
2026-04-28 07:33 52.44347 -1.73489 323 ft 12 kts 234°
2026-04-28 07:33 52.44326 -1.73618 323 ft 13 kts 298°
2026-04-28 07:33 52.44421 -1.73730 323 ft 35 kts 327°
2026-04-28 07:33 52.44807 -1.74157 323 ft 98 kts 326°
2026-04-28 07:34 52.45524 -1.74960 321 ft 150 kts 323°
2026-04-28 07:34 52.46498 -1.76043 487 ft 180 kts 332°
2026-04-28 07:34 52.47530 -1.77178 1190 ft 181 kts 332°
2026-04-28 07:34 52.48596 -1.78345 1918 ft 184 kts 334°
2026-04-28 07:35 52.49722 -1.79484 2359 ft 200 kts 345°
2026-04-28 07:35 52.51082 -1.79891 2617 ft 204 kts 11°
2026-04-28 07:35 52.52430 -1.79215 3117 ft 205 kts 36°
2026-04-28 07:35 52.53442 -1.77588 3869 ft 201 kts 60°
2026-04-28 07:36 52.53897 -1.75422 4517 ft 206 kts 84°
2026-04-28 07:36 52.53774 -1.73072 5178 ft 213 kts 97°
2026-04-28 07:36 52.53470 -1.70691 5804 ft 213 kts 98°
2026-04-28 07:36 52.53118 -1.68304 5965 ft 218 kts 107°
2026-04-28 07:37 52.52314 -1.66099 6114 ft 239 kts 125°
2026-04-28 07:37 52.51108 -1.64109 6666 ft 250 kts 131°
2026-04-28 07:37 52.49845 -1.62115 7331 ft 253 kts 130°
2026-04-28 07:37 52.48580 -1.60094 8037 ft 255 kts 129°
2026-04-28 07:38 52.47303 -1.58037 8709 ft 258 kts 129°
2026-04-28 07:38 52.45994 -1.55967 9240 ft 271 kts 134°
2026-04-28 07:38 52.44368 -1.54233 9839 ft 283 kts 143°
2026-04-28 07:38 52.42647 -1.52621 10477 ft 287 kts 142°
2026-04-28 07:39 52.40920 -1.50954 11109 ft 289 kts 142°
2026-04-28 07:39 52.39193 -1.49259 11764 ft 291 kts 142°
2026-04-28 07:39 52.37453 -1.47538 12458 ft 293 kts 142°
2026-04-28 07:39 52.35620 -1.45992 13123 ft 304 kts 158°
2026-04-28 07:40 52.33511 -1.45299 13833 ft 311 kts 165°
2026-04-28 07:40 52.31380 -1.44735 14498 ft 314 kts 165°
2026-04-28 07:40 52.29196 -1.44161 15117 ft 318 kts 164°
2026-04-28 07:40 52.26965 -1.43558 15401 ft 336 kts 165°
2026-04-28 07:41 52.24617 -1.42907 15566 ft 355 kts 165°
2026-04-28 07:41 52.22133 -1.42214 15719 ft 375 kts 165°
2026-04-28 07:41 52.19503 -1.41478 15856 ft 393 kts 165°
2026-04-28 07:41 52.16760 -1.40712 16169 ft 404 kts 165°
2026-04-28 07:42 52.13998 -1.39945 16701 ft 409 kts 165°
2026-04-28 07:42 52.11185 -1.39164 17333 ft 411 kts 165°
2026-04-28 07:42 52.08347 -1.38372 17882 ft 415 kts 164°
2026-04-28 07:42 52.05480 -1.37570 18419 ft 420 kts 164°
2026-04-28 07:43 52.02588 -1.36762 18921 ft 423 kts 164°
2026-04-28 07:43 51.99682 -1.35945 19461 ft 424 kts 163°
2026-04-28 07:43 51.96843 -1.34730 19941 ft 420 kts 153°
2026-04-28 07:43 51.94210 -1.32774 20419 ft 417 kts 146°
2026-04-28 07:44 51.91612 -1.30618 20912 ft 420 kts 146°
2026-04-28 07:44 51.88999 -1.28453 21372 ft 423 kts 146°
2026-04-28 07:44 51.86372 -1.26300 21836 ft 426 kts 146°
2026-04-28 07:44 51.83710 -1.24142 22299 ft 429 kts 146°
2026-04-28 07:45 51.81040 -1.21994 22736 ft 432 kts 146°
2026-04-28 07:45 51.78329 -1.19824 23287 ft 433 kts 146°
2026-04-28 07:45 51.75620 -1.17661 23781 ft 435 kts 146°
2026-04-28 07:45 51.72886 -1.15480 24123 ft 438 kts 146°
2026-04-28 07:46 51.70132 -1.13282 24441 ft 442 kts 146°
2026-04-28 07:46 51.67366 -1.11079 24759 ft 445 kts 146°
2026-04-28 07:46 51.64612 -1.08786 25087 ft 442 kts 141°
2026-04-28 07:46 51.62261 -1.05732 25369 ft 430 kts 126°
2026-04-28 07:47 51.60481 -1.01949 25716 ft 422 kts 114°
2026-04-28 07:47 51.59256 -0.97712 26020 ft 416 kts 105°
2026-04-28 07:47 51.58226 -0.93336 26248 ft 420 kts 106°
2026-04-28 07:47 51.57153 -0.88929 26414 ft 426 kts 107°
2026-04-28 07:48 51.56033 -0.84482 26693 ft 430 kts 108°
2026-04-28 07:48 51.54892 -0.80032 26973 ft 433 kts 108°
2026-04-28 07:48 51.53750 -0.75605 27280 ft 435 kts 108°
2026-04-28 07:48 51.52587 -0.71099 27558 ft 438 kts 108°
2026-04-28 07:49 51.51800 -0.68054 27760 ft 439 kts 108°
2026-04-28 07:49 51.50253 -0.62066 28294 ft 438 kts 108°
2026-04-28 07:49 51.49090 -0.57569 28678 ft 437 kts 108°
2026-04-28 07:49 51.47934 -0.53103 29018 ft 438 kts 108°
2026-04-28 07:50 51.46764 -0.48585 29373 ft 439 kts 108°
2026-04-28 07:50 51.45593 -0.44078 29796 ft 439 kts 108°
2026-04-28 07:50 51.44820 -0.41105 30056 ft 439 kts 108°
2026-04-28 07:50 51.43640 -0.36575 30405 ft 439 kts 108°
2026-04-28 07:51 51.42463 -0.32066 30669 ft 440 kts 108°
2026-04-28 07:51 51.40880 -0.26014 31026 ft 440 kts 108°
2026-04-28 07:51 51.40103 -0.23050 31197 ft 441 kts 108°
2026-04-28 07:51 51.38913 -0.18519 31491 ft 441 kts 109°
2026-04-28 07:52 51.37721 -0.13987 31764 ft 442 kts 109°
2026-04-28 07:52 51.36529 -0.09461 32013 ft 443 kts 109°
2026-04-28 07:52 51.35327 -0.04907 32273 ft 443 kts 109°
2026-04-28 07:52 51.34187 -0.00601 32528 ft 444 kts 110°
2026-04-28 07:53 51.33135 0.03634 32648 ft 446 kts 105°
2026-04-28 07:53 51.32382 0.08463 32775 ft 448 kts 98°
2026-04-28 07:53 51.31818 0.13345 33232 ft 444 kts 98°
2026-04-28 07:53 51.31262 0.18182 33605 ft 442 kts 98°
2026-04-28 07:54 51.30725 0.22691 33744 ft 446 kts 98°
2026-04-28 07:54 51.30133 0.27486 34046 ft 444 kts 99°
2026-04-28 07:54 51.29526 0.32315 34354 ft 444 kts 99°
2026-04-28 07:54 51.28929 0.37176 34512 ft 446 kts 99°
2026-04-28 07:55 51.28341 0.42037 34776 ft 444 kts 98°
2026-04-28 07:55 51.27757 0.46873 35066 ft 442 kts 98°
2026-04-28 07:55 51.27170 0.51710 35189 ft 445 kts 99°
2026-04-28 07:55 51.26578 0.56569 35382 ft 445 kts 99°
2026-04-28 07:56 51.25970 0.61392 35645 ft 443 kts 100°
2026-04-28 07:56 51.25330 0.66225 35728 ft 446 kts 99°
2026-04-28 07:56 51.24683 0.71067 35865 ft 446 kts 99°
2026-04-28 07:56 51.24057 0.75901 36077 ft 445 kts 99°
2026-04-28 07:57 51.22840 0.85598 36333 ft 448 kts 98°
2026-04-28 07:57 51.22224 0.90499 36634 ft 445 kts 99°
2026-04-28 07:57 51.21612 0.95347 36692 ft 447 kts 100°
2026-04-28 07:58 51.20415 1.04663 36884 ft 450 kts 101°
2026-04-28 07:58 51.19783 1.09491 36991 ft 452 kts 100°
2026-04-28 07:58 51.19139 1.14401 37143 ft 452 kts 99°
2026-04-28 07:59 51.18497 1.19288 37485 ft 448 kts 100°
2026-04-28 07:59 51.17858 1.24142 37685 ft 447 kts 101°
2026-04-28 07:59 51.16572 1.33867 37941 ft 449 kts 101°
2026-04-28 08:00 51.15807 1.43339 38150 ft 448 kts 92°
2026-04-28 08:00 51.15620 1.47771 38300 ft 448 kts 93°
2026-04-28 08:00 51.15435 1.52424 38375 ft 449 kts 92°
2026-04-28 08:01 51.15038 1.61692 38582 ft 450 kts 91°
2026-04-28 08:01 51.14805 1.66637 38693 ft 451 kts 92°
2026-04-28 08:01 51.14561 1.71604 38806 ft 451 kts 92°
2026-04-28 08:02 51.14311 1.76572 38955 ft 450 kts 93°
2026-04-28 08:02 51.14057 1.81559 39035 ft 451 kts 94°
2026-04-28 08:02 51.13548 1.91441 39205 ft 451 kts 94°
2026-04-28 08:03 51.13045 2.01087 39269 ft 454 kts 94°
2026-04-28 08:03 51.12781 2.06094 39388 ft 453 kts 94°
2026-04-28 08:03 51.12514 2.11079 39505 ft 452 kts 93°
2026-04-28 08:04 51.11976 2.21055 39641 ft 453 kts 93°
2026-04-28 08:04 51.11430 2.31036 39797 ft 452 kts 93°
2026-04-28 08:05 51.10875 2.41014 39908 ft 454 kts 94°
2026-04-28 08:05 51.10313 2.51036 40039 ft 454 kts 94°
2026-04-28 08:06 51.09732 2.60989 40178 ft 454 kts 96°
2026-04-28 08:06 51.07988 2.70661 40228 ft 459 kts 114°
2026-04-28 08:07 51.06606 2.75226 40355 ft 457 kts 115°
2026-04-28 08:07 51.05196 2.79743 40432 ft 457 kts 116°
2026-04-28 08:07 51.02349 2.88839 40419 ft 462 kts 115°
2026-04-28 08:08 50.99532 2.97937 40650 ft 458 kts 114°
2026-04-28 08:08 50.96828 3.06728 40606 ft 462 kts 115°
2026-04-28 08:09 50.95414 3.11326 40733 ft 460 kts 115°
2026-04-28 08:09 50.94016 3.15866 40914 ft 457 kts 114°
2026-04-28 08:09 50.92630 3.20357 41165 ft 451 kts 114°
2026-04-28 08:09 50.91273 3.24742 41393 ft 445 kts 115°
2026-04-28 08:10 50.89910 3.29142 41502 ft 443 kts 115°
2026-04-28 08:10 50.88551 3.33524 41406 ft 446 kts 115°
2026-04-28 08:10 50.87173 3.37956 41286 ft 449 kts 115°
2026-04-28 08:10 50.85814 3.42325 41100 ft 455 kts 115°
2026-04-28 08:11 50.84402 3.46852 40963 ft 459 kts 115°
2026-04-28 08:11 50.82985 3.51385 40953 ft 459 kts 115°
2026-04-28 08:11 50.80152 3.60419 40956 ft 461 kts 116°
2026-04-28 08:12 50.77292 3.69501 41029 ft 460 kts 116°
2026-04-28 08:12 50.75871 3.74002 41189 ft 456 kts 116°
2026-04-28 08:12 50.74450 3.78496 41154 ft 458 kts 116°
2026-04-28 08:13 50.71586 3.87530 41146 ft 459 kts 116°
2026-04-28 08:13 50.68724 3.96523 41140 ft 461 kts 116°
2026-04-28 08:14 50.65956 4.05192 41230 ft 459 kts 116°
2026-04-28 08:14 50.63079 4.14169 41250 ft 460 kts 116°
2026-04-28 08:15 50.60197 4.23128 41231 ft 461 kts 116°
2026-04-28 08:15 50.57304 4.32091 41310 ft 460 kts 116°
2026-04-28 08:16 50.55844 4.36603 41198 ft 463 kts 117°
2026-04-28 08:16 50.54375 4.41131 41145 ft 464 kts 117°
2026-04-28 08:16 50.52910 4.45643 41248 ft 462 kts 117°
2026-04-28 08:16 50.51451 4.50127 41312 ft 461 kts 117°
2026-04-28 08:17 50.48520 4.59107 41308 ft 462 kts 117°
2026-04-28 08:17 50.45576 4.68096 41408 ft 460 kts 117°
2026-04-28 08:18 50.42665 4.76954 41400 ft 461 kts 117°
2026-04-28 08:18 50.39712 4.85906 41491 ft 460 kts 117°
2026-04-28 08:19 50.36763 4.94816 41441 ft 462 kts 117°
2026-04-28 08:19 50.33909 5.03408 41494 ft 461 kts 117°
2026-04-28 08:20 50.30948 5.12292 41557 ft 460 kts 117°
2026-04-28 08:20 50.27984 5.21153 41503 ft 462 kts 118°
2026-04-28 08:21 50.25000 5.30044 41550 ft 461 kts 118°
2026-04-28 08:21 50.22030 5.38860 41580 ft 461 kts 118°
2026-04-28 08:22 50.19032 5.47731 41603 ft 461 kts 118°
2026-04-28 08:22 50.16034 5.56570 41618 ft 461 kts 118°
2026-04-28 08:23 50.13031 5.65396 41641 ft 461 kts 118°
2026-04-28 08:23 50.10020 5.74218 41673 ft 461 kts 118°
2026-04-28 08:24 50.06956 5.82980 41663 ft 461 kts 121°
2026-04-28 08:24 50.03521 5.91367 41581 ft 463 kts 124°
2026-04-28 08:25 49.99932 5.99737 41505 ft 465 kts 124°
2026-04-28 08:26 49.94741 6.11979 41409 ft 468 kts 124°
2026-04-28 08:26 49.91175 6.20454 41338 ft 470 kts 124°
2026-04-28 08:27 49.87581 6.28985 41224 ft 474 kts 124°
2026-04-28 08:27 49.83954 6.37564 41104 ft 478 kts 124°
2026-04-28 08:28 49.80298 6.46181 41095 ft 479 kts 124°
2026-04-28 08:28 49.76627 6.54803 41085 ft 480 kts 124°
2026-04-28 08:29 49.72946 6.63420 41081 ft 481 kts 124°
2026-04-28 08:29 49.69248 6.72048 41077 ft 481 kts 124°
2026-04-28 08:30 49.65568 6.80608 41073 ft 482 kts 125°
2026-04-28 08:30 49.61848 6.89231 41078 ft 483 kts 125°
2026-04-28 08:31 49.58120 6.97847 41079 ft 483 kts 125°
2026-04-28 08:31 49.54504 7.06176 41085 ft 484 kts 125°
2026-04-28 08:32 49.50756 7.14782 41076 ft 484 kts 125°
2026-04-28 08:32 49.46997 7.23385 41086 ft 485 kts 126°
2026-04-28 08:33 49.43228 7.31984 41089 ft 485 kts 126°
2026-04-28 08:33 49.39451 7.40572 41100 ft 485 kts 126°
2026-04-28 08:34 49.35666 7.49153 41094 ft 486 kts 126°
2026-04-28 08:34 49.31898 7.57667 41101 ft 486 kts 126°
2026-04-28 08:35 49.28081 7.66262 41102 ft 487 kts 126°
2026-04-28 08:35 49.24264 7.74831 41090 ft 487 kts 126°
2026-04-28 08:36 49.20440 7.83390 41098 ft 487 kts 126°
2026-04-28 08:36 49.16612 7.91929 41098 ft 487 kts 126°
2026-04-28 08:37 49.12887 8.00213 41091 ft 487 kts 126°
2026-04-28 08:37 49.09115 8.08576 41093 ft 488 kts 127°
2026-04-28 08:38 49.05257 8.17104 41083 ft 488 kts 127°
2026-04-28 08:38 49.02052 8.24170 41084 ft 488 kts 127°
2026-04-28 08:39 48.97978 8.32420 41078 ft 484 kts 137°
2026-04-28 08:39 48.92932 8.39106 41083 ft 481 kts 143°
2026-04-28 08:40 48.87822 8.45712 41088 ft 482 kts 142°
2026-04-28 08:40 48.82737 8.52378 41079 ft 483 kts 142°
2026-04-28 08:41 48.77692 8.59011 41090 ft 483 kts 142°
2026-04-28 08:41 48.72603 8.65682 41073 ft 483 kts 142°
2026-04-28 08:42 48.67472 8.72383 41091 ft 484 kts 142°
2026-04-28 08:42 48.62365 8.79033 41093 ft 485 kts 142°
2026-04-28 08:43 48.57285 8.85628 41084 ft 485 kts 142°
2026-04-28 08:43 48.52161 8.92263 41095 ft 485 kts 142°
2026-04-28 08:44 48.47036 8.98881 41081 ft 486 kts 142°
2026-04-28 08:44 48.42063 9.05286 41077 ft 486 kts 142°
2026-04-28 08:45 48.36907 9.11908 41076 ft 487 kts 142°
2026-04-28 08:45 48.31761 9.18499 41079 ft 487 kts 142°
2026-04-28 08:46 48.26598 9.25094 41069 ft 487 kts 142°
2026-04-28 08:46 48.21439 9.31666 41077 ft 486 kts 142°
2026-04-28 08:47 48.16280 9.38220 41076 ft 486 kts 142°
2026-04-28 08:47 48.11143 9.44729 41077 ft 486 kts 142°
2026-04-28 08:48 48.05980 9.51255 41083 ft 486 kts 142°
2026-04-28 08:48 48.00786 9.57707 41077 ft 485 kts 145°
2026-04-28 08:49 47.95355 9.63652 41088 ft 484 kts 148°
2026-04-28 08:49 47.89860 9.69462 41075 ft 484 kts 148°
2026-04-28 08:50 47.84377 9.75304 41070 ft 485 kts 147°
2026-04-28 08:50 47.78905 9.81172 41045 ft 486 kts 147°
2026-04-28 08:50 47.76142 9.84134 40716 ft 493 kts 147°
2026-04-28 08:51 47.73347 9.87126 40320 ft 494 kts 147°
2026-04-28 08:51 47.70576 9.90092 39872 ft 489 kts 147°
2026-04-28 08:51 47.67823 9.93034 39427 ft 484 kts 148°
2026-04-28 08:51 47.65109 9.95929 38997 ft 481 kts 148°
2026-04-28 08:52 47.62382 9.98833 38535 ft 478 kts 148°
2026-04-28 08:52 47.59970 10.01396 38061 ft 476 kts 148°
2026-04-28 08:52 47.57223 10.04312 37498 ft 474 kts 149°
2026-04-28 08:52 47.54551 10.07145 36995 ft 472 kts 149°
2026-04-28 08:53 47.51889 10.09965 36557 ft 468 kts 149°
2026-04-28 08:53 47.49254 10.12754 36157 ft 462 kts 149°
2026-04-28 08:53 47.46650 10.15506 35790 ft 459 kts 150°
2026-04-28 08:53 47.44030 10.18260 35429 ft 465 kts 151°
2026-04-28 08:54 47.41309 10.20892 35081 ft 471 kts 154°
2026-04-28 08:54 47.38497 10.23416 34721 ft 474 kts 155°
2026-04-28 08:54 47.35674 10.25929 34352 ft 473 kts 154°
2026-04-28 08:54 47.32874 10.28456 34000 ft 473 kts 154°
2026-04-28 08:55 47.30063 10.31009 33554 ft 473 kts 154°
2026-04-28 08:55 47.27273 10.33530 33145 ft 471 kts 153°
2026-04-28 08:55 47.24478 10.36052 32763 ft 470 kts 154°
2026-04-28 08:55 47.21685 10.38568 32360 ft 469 kts 154°
2026-04-28 08:56 47.18888 10.41079 31975 ft 473 kts 154°
2026-04-28 08:56 47.16104 10.43574 31632 ft 478 kts 154°
2026-04-28 08:56 47.13251 10.46133 31253 ft 480 kts 154°
2026-04-28 08:56 47.10404 10.48689 30852 ft 479 kts 154°
2026-04-28 08:57 47.07569 10.51224 30506 ft 478 kts 155°
2026-04-28 08:57 47.04634 10.53458 30122 ft 470 kts 163°
2026-04-28 08:57 47.01583 10.54972 29692 ft 458 kts 169°
2026-04-28 08:57 46.98539 10.56268 29289 ft 456 kts 169°
2026-04-28 08:58 46.95500 10.57563 28905 ft 457 kts 169°
2026-04-28 08:58 46.92448 10.58899 28695 ft 454 kts 168°
2026-04-28 08:58 46.89441 10.60247 28540 ft 455 kts 168°
2026-04-28 08:58 46.86388 10.61625 28346 ft 460 kts 168°
2026-04-28 08:59 46.83368 10.62988 28158 ft 461 kts 168°
2026-04-28 08:59 46.80297 10.64369 27990 ft 460 kts 168°
2026-04-28 08:59 46.77247 10.65740 27802 ft 460 kts 168°
2026-04-28 08:59 46.74182 10.67101 27633 ft 460 kts 168°
2026-04-28 09:00 46.71119 10.68428 27481 ft 458 kts 170°
2026-04-28 09:00 46.68038 10.69539 27307 ft 457 kts 172°
2026-04-28 09:00 46.64966 10.70517 27082 ft 456 kts 173°
2026-04-28 09:00 46.61925 10.71450 26934 ft 457 kts 173°
2026-04-28 09:01 46.58801 10.72408 26785 ft 462 kts 173°
2026-04-28 09:01 46.55636 10.73401 26628 ft 462 kts 172°
2026-04-28 09:01 46.52513 10.74404 26475 ft 459 kts 172°
2026-04-28 09:01 46.49388 10.75418 26294 ft 458 kts 172°
2026-04-28 09:02 46.46281 10.76431 26132 ft 457 kts 172°
2026-04-28 09:02 46.43183 10.77439 25970 ft 456 kts 172°
2026-04-28 09:02 46.40090 10.78445 25823 ft 457 kts 172°
2026-04-28 09:02 46.36987 10.79452 25667 ft 457 kts 172°
2026-04-28 09:03 46.33882 10.80458 25501 ft 456 kts 171°
2026-04-28 09:03 46.30826 10.81449 25340 ft 455 kts 171°
2026-04-28 09:03 46.27708 10.82457 25194 ft 454 kts 171°
2026-04-28 09:03 46.24661 10.83441 25022 ft 453 kts 171°
2026-04-28 09:04 46.21600 10.84428 24885 ft 452 kts 171°
2026-04-28 09:04 46.18526 10.85417 24729 ft 452 kts 171°
2026-04-28 09:04 46.15454 10.86374 24543 ft 449 kts 173°
2026-04-28 09:04 46.12388 10.87157 24336 ft 447 kts 172°
2026-04-28 09:05 46.09363 10.88151 23918 ft 442 kts 170°
2026-04-28 09:05 46.06420 10.89189 23432 ft 437 kts 170°
2026-04-28 09:05 46.03493 10.90195 22880 ft 429 kts 170°
2026-04-28 09:05 46.00609 10.91152 22359 ft 419 kts 170°
2026-04-28 09:06 45.97819 10.92053 21834 ft 409 kts 171°
2026-04-28 09:06 45.95076 10.92927 21358 ft 400 kts 171°
2026-04-28 09:06 45.92384 10.93779 20858 ft 393 kts 171°
2026-04-28 09:06 45.89740 10.94616 20390 ft 386 kts 171°
2026-04-28 09:07 45.87143 10.95439 19906 ft 379 kts 171°
2026-04-28 09:07 45.84586 10.96250 19438 ft 373 kts 171°
2026-04-28 09:07 45.82074 10.97046 18977 ft 367 kts 170°
2026-04-28 09:07 45.79597 10.97828 18524 ft 362 kts 170°
2026-04-28 09:08 45.77162 10.98594 18025 ft 357 kts 170°
2026-04-28 09:08 45.74739 10.99356 17519 ft 352 kts 170°
2026-04-28 09:08 45.72508 11.00057 17060 ft 348 kts 170°
2026-04-28 09:08 45.70180 11.00787 16564 ft 345 kts 170°
2026-04-28 09:09 45.67882 11.01702 16052 ft 344 kts 156°
2026-04-28 09:09 45.65966 11.03708 15577 ft 344 kts 132°
2026-04-28 09:09 45.64730 11.06614 15118 ft 342 kts 111°
2026-04-28 09:09 45.64266 11.09871 14665 ft 340 kts 93°
2026-04-28 09:10 45.64214 11.13224 14213 ft 337 kts 90°
2026-04-28 09:10 45.64211 11.16569 13722 ft 334 kts 90°
2026-04-28 09:10 45.64211 11.19877 13196 ft 332 kts 90°
2026-04-28 09:10 45.64202 11.23165 12663 ft 330 kts 91°
2026-04-28 09:11 45.64183 11.26431 12162 ft 328 kts 91°
2026-04-28 09:11 45.64157 11.29675 11658 ft 325 kts 91°
2026-04-28 09:11 45.64127 11.32900 11165 ft 324 kts 91°
2026-04-28 09:11 45.64095 11.36111 10652 ft 322 kts 91°
2026-04-28 09:12 45.64062 11.39287 10216 ft 316 kts 91°
2026-04-28 09:12 45.64028 11.42373 9789 ft 311 kts 91°
2026-04-28 09:12 45.63995 11.45430 9345 ft 306 kts 91°
2026-04-28 09:12 45.63969 11.48445 8907 ft 302 kts 91°
2026-04-28 09:13 45.63944 11.51435 8470 ft 298 kts 91°
2026-04-28 09:13 45.63917 11.54367 8040 ft 294 kts 91°
2026-04-28 09:13 45.63887 11.57277 7621 ft 291 kts 91°
2026-04-28 09:13 45.63846 11.60121 7205 ft 288 kts 92°
2026-04-28 09:14 45.63803 11.62960 6797 ft 285 kts 92°
2026-04-28 09:14 45.63703 11.65783 6386 ft 283 kts 102°
2026-04-28 09:14 45.62896 11.68302 5931 ft 279 kts 130°
2026-04-28 09:14 45.61505 11.70189 5523 ft 274 kts 143°
2026-04-28 09:15 45.59983 11.71799 5115 ft 271 kts 144°
2026-04-28 09:15 45.58491 11.73351 5006 ft 258 kts 144°
2026-04-28 09:15 45.57098 11.74821 4981 ft 247 kts 143°
2026-04-28 09:15 45.55755 11.76261 4989 ft 238 kts 140°
2026-04-28 09:16 45.54749 11.78122 4903 ft 241 kts 111°
2026-04-28 09:16 45.54507 11.80466 4783 ft 242 kts 86°
2026-04-28 09:16 45.54936 11.82772 4575 ft 240 kts 69°
2026-04-28 09:16 45.55555 11.84945 4358 ft 237 kts 68°
2026-04-28 09:17 45.56169 11.87103 4167 ft 235 kts 69°
2026-04-28 09:17 45.56787 11.89245 3967 ft 232 kts 66°
2026-04-28 09:17 45.57428 11.91340 3890 ft 229 kts 68°
2026-04-28 09:17 45.58026 11.93483 3610 ft 239 kts 69°
2026-04-28 09:18 45.58602 11.95672 3311 ft 233 kts 70°
2026-04-28 09:18 45.59159 11.97802 2998 ft 224 kts 70°
2026-04-28 09:18 45.59692 11.99842 2700 ft 216 kts 69°
2026-04-28 09:18 45.60174 12.01675 2452 ft 207 kts 69°
2026-04-28 09:19 45.60668 12.03557 2181 ft 195 kts 69°
2026-04-28 09:19 45.61128 12.05306 1913 ft 181 kts 69°
2026-04-28 09:19 45.61556 12.06931 1701 ft 168 kts 69°
2026-04-28 09:19 45.61958 12.08456 1453 ft 160 kts 69°
2026-04-28 09:20 45.62340 12.09908 1314 ft 152 kts 69°
2026-04-28 09:20 45.62716 12.11335 1073 ft 152 kts 69°
2026-04-28 09:20 45.63084 12.12730 854 ft 147 kts 69°
2026-04-28 09:20 45.63437 12.14070 658 ft 145 kts 70°
2026-04-28 09:21 45.63784 12.15423 432 ft 143 kts 70°
2026-04-28 09:21 45.64151 12.16742 242 ft 141 kts 70°
2026-04-28 09:21 45.64480 12.18012 116 ft 136 kts 70°
2026-04-28 09:21 45.64792 12.19189 61 ft 111 kts 68°
2026-04-28 09:22 45.64997 12.19962 58 ft 34 kts 69°
2026-04-28 09:22 45.65076 12.20172 60 ft 15 kts 50°
2026-04-28 09:22 45.65146 12.20235 59 ft 12 kts 22°
2026-04-28 09:22 45.65177 12.20253 56 ft 4 kts 23°
2026-04-28 09:23 45.65203 12.20269 61 ft 4 kts 24°
2026-04-28 09:23 45.65232 12.20287 60 ft 5 kts 22°
2026-04-28 09:23 45.65264 12.20310 56 ft 6 kts 32°
2026-04-28 09:23 45.65295 12.20360 59 ft 8 kts 60°
2026-04-28 09:24 45.65317 12.20436 57 ft 9 kts 69°
2026-04-28 09:24 45.65332 12.20488 61 ft 6 kts 58°
2026-04-28 09:24 45.65367 12.20499 61 ft 4 kts 343°
2026-04-28 09:24 45.65393 12.20486 61 ft 0 kts 340°